Location: Carri�res
(48.9069°N, 2.1792°E)
Time: 20:17:36
(UTC+00:00)

Iridium 4 Rocket - Pass Details

Date: 17 January 2021
Orbit: 583 x 906 km, 86.9° (Epoch: 02 March)

Event Time Altitude Azimuth Distance (km) Brightness Sun altitude
Rises 19:07:29 0° 357° (N) 3,534 7.0 -26.1°
Reaches altitude 10° 19:09:59 10° 358° (N) 2,572 6.2 -26.5°
Enters shadow 19:15:41 82° 46° (NE) 875 3.6 -27.4°
Exits shadow 19:23:27 - 177° (S) 3,223 6.7 -28.7°
Sets 19:23:36 0° 177° (S) 3,279 6.7 -28.7°
